[[{"header":{"parameterUnit":"m.s-1","parameterCategory":1,"la1":30.2991,"la2":30.254,"lo1":-89.0895,"lo2":-89.0444,"dy":0.0017,"dx":0.0017,"nx":28,"ny":28,"refTime":"2025-01-03T03:00:00:Z","depth":0,"parameterNumber":2,"parameterNumberName":"U-component_of_WINDS"},"data":[0,0,0,0,0,0,0,0,0,0,0,0,0,0,0,0,0,0,0,0,0,0,0,0,0,0,0,0,0,0,0,0,0,0,0,0,0,0,0,0,0,0,0,0,0,0,0,0,0,0,0,0,0,0,0,0,0,0,-0.6608,-0.6608,0,-0.6603,-0.6603,-0.6603,-0.6567,-0.6567,-0.6566,-0.6565,-0.6561,-0.6562,-0.6563,0,0,0,0,0,0,0,0,0,0,0,0,0,-0.6587,-0.6588,-0.6608,-0.6608,-0.6608,-0.6603,-0.6603,-0.6603,-0.6568,-0.6566,-0.6565,-0.6564,-0.6561,-0.6562,-0.6563,0,0,0,0,0,0,0,0,0,0,0,0,0,-0.659,-0.6588,-0.6608,-0.659,-0.6588,-0.6603,-0.6603,-0.6603,-0.6568,-0.6566,-0.6565,-0.6564,-0.6561,-0.6562,-0.6563,-0.6595,0,0,-0.6566,-0.6567,0,0,0,0,0,0,0,0,-0.659,-0.6591,-0.6592,-0.6591,-0.6589,-0.6584,-0.6594,-0.66,-0.6568,-0.6575,-0.6565,-0.6563,-0.657,-0.657,-0.6572,-0.6595,-0.6595,-0.6566,-0.6567,-0.6567,-0.6568,0,0,0,0,0,0,0,-0.659,-0.6591,-0.6606,-0.6592,-0.659,-0.6582,-0.6581,-0.6595,-0.658,-0.6575,-0.6572,-0.6572,-0.6569,-0.6571,-0.6572,-0.6595,-0.6566,-0.6567,-0.6568,-0.6568,-0.6641,-0.6642,0,0,0,0,0,0,-0.6592,-0.6591,-0.6606,-0.6606,-0.6586,-0.6583,-0.6582,-0.6587,-0.658,-0.6578,-0.6573,-0.657,-0.657,-0.6571,-0.6572,-0.6607,-0.6567,-0.6568,-0.6569,-0.664,-0.6641,-0.6643,0,0,0,0,0,0,-0.6592,-0.6594,-0.6606,-0.6598,-0.6599,-0.6585,-0.6591,-0.6588,-0.659,-0.6579,-0.6576,-0.6578,-0.6569,-0.657,-0.6589,-0.6606,-0.6569,-0.657,-0.6638,-0.664,-0.6642,-0.6679,0,0,0,0,0,0,-0.6592,-0.6594,-0.6607,-0.6598,-0.6599,-0.6624,-0.6592,-0.6589,-0.6592,-0.6588,-0.6583,-0.6581,-0.6568,-0.6587,-0.659,-0.6607,-0.6571,-0.6637,-0.6639,-0.6641,-0.6677,-0.6682,-0.6687,0,0,0,0,0,-0.6591,-0.6618,-0.6607,-0.6609,-0.6615,-0.6625,-0.6626,-0.661,-0.6593,-0.6605,-0.6598,-0.6581,-0.6604,-0.659,-0.6592,-0.661,-0.6635,-0.6638,-0.6641,-0.6674,-0.6681,-0.6687,0,0,0,0,0,0,-0.6631,-0.6617,-0.6605,-0.663,-0.6629,-0.6619,-0.6634,-0.6619,-0.6623,-0.6619,-0.66,-0.66,-0.6621,-0.6617,-0.6601,-0.664,-0.6617,-0.662,-0.6641,-0.6648,-0.6653,-0.6653,-0.6571,0,0,0,0,0,-0.6642,-0.6651,-0.6639,-0.6663,-0.6663,-0.6648,-0.6653,-0.6641,-0.6639,-0.6638,-0.6632,-0.6631,-0.6637,-0.6642,-0.6648,-0.6676,-0.6673,-0.6689,-0.6695,-0.6699,-0.6702,-0.6714,-0.672,-0.6652,-0.6652,-0.6652,0,0,-0.6666,-0.666,-0.6667,-0.6671,-0.6668,-0.6678,-0.6648,-0.6661,-0.6667,-0.664,-0.6657,-0.6652,-0.6649,-0.6672,-0.6681,-0.667,-0.672,-0.6703,-0.6707,-0.6707,-0.6718,-0.6724,-0.673,-0.6654,-0.6654,-0.6654,0,0,-0.6715,-0.6712,-0.673,-0.6727,-0.6723,-0.6713,-0.6717,-0.6709,-0.6705,-0.6721,-0.67,-0.6707,-0.672,-0.6718,-0.6719,-0.6764,-0.6748,-0.6767,-0.6795,-0.6806,-0.6812,-0.6816,-0.683,-0.6836,-0.677,-0.677,-0.677,0,-0.6746,-0.6759,-0.6741,-0.6754,-0.6755,-0.673,-0.6747,-0.6746,-0.6744,-0.6745,-0.6732,-0.6745,-0.6742,-0.6763,-0.6773,-0.6775,-0.6779,-0.6767,-0.6812,-0.6817,-0.6821,-0.6834,-0.684,-0.6772,-0.6772,-0.6772,-0.6771,0,-0.6796,-0.6805,-0.6821,-0.6818,-0.6821,-0.6836,-0.682,-0.6825,-0.6812,-0.6803,-0.6819,-0.6814,-0.6817,-0.6821,-0.6809,-0.6839,-0.6831,-0.6816,-0.6792,-0.683,-0.6842,-0.6847,-0.6775,-0.6774,-0.6774,-0.6773,0,0,-0.687,-0.6856,-0.6861,-0.6859,-0.6851,-0.6858,-0.6871,-0.6873,-0.6877,-0.6876,-0.6886,-0.6896,-0.688,-0.6881,-0.6869,-0.6879,-0.6912,-0.6862,-0.6862,-0.687,-0.6942,-0.6953,-0.6959,-0.6902,-0.6903,-0.6903,-0.6941,0,-0.6915,-0.6937,-0.692,-0.6944,-0.6951,-0.6926,-0.6937,-0.6933,-0.6925,-0.6929,-0.692,-0.6927,-0.6907,-0.6907,-0.6916,-0.6907,-0.6926,-0.6904,-0.6909,-0.691,-0.691,-0.6966,-0.6978,-0.7014,-0.6946,-0.6947,-0.6948,0,-0.6971,-0.6971,-0.6995,-0.6983,-0.6986,-0.6996,-0.6995,-0.7,-0.6995,-0.6988,-0.6987,-0.6972,-0.6983,-0.696,-0.6974,-0.6959,-0.696,-0.6955,-0.6956,-0.6956,-0.693,-0.6965,-0.7026,-0.703,-0.6955,-0.6955,-0.6954,0,-0.702,-0.7027,-0.7041,-0.704,-0.7027,-0.7034,-0.703,-0.7023,-0.7024,-0.7023,-0.7023,-0.7025,-0.7025,-0.7025,-0.701,-0.6995,-0.7025,-0.7002,-0.7018,-0.7019,-0.7025,-0.7025,-0.7086,-0.7029,-0.7028,-0.7028,-0.7028,0,-0.7072,-0.7087,-0.7062,-0.7072,-0.7087,-0.7067,-0.7084,-0.7076,-0.707,-0.7076,-0.7055,-0.7061,-0.7041,-0.7045,-0.7033,-0.7045,-0.7046,-0.7039,-0.7036,-0.7041,-0.7041,-0.7041,-0.7037,-0.703,-0.7029,-0.7029,-0.7029,0,-0.713,-0.7114,-0.7128,-0.7114,-0.711,-0.7122,-0.711,-0.7117,-0.7107,-0.7115,-0.7116,-0.7099,-0.7102,-0.7086,-0.7088,-0.7079,-0.7097,-0.709,-0.7098,-0.7096,-0.7113,-0.7111,-0.7174,-0.7181,-0.7121,-0.7121,-0.7122,0,-0.7163,-0.7174,-0.716,-0.7162,-0.7158,-0.7162,-0.7163,-0.7143,-0.7144,-0.7137,-0.7145,-0.7146,-0.7146,-0.7152,-0.714,-0.714,-0.7132,-0.7154,-0.7132,-0.7135,-0.713,-0.7129,-0.7129,-0.7159,-0.7159,-0.716,-0.716,0,-0.7223,-0.7213,-0.7215,-0.7213,-0.7214,-0.7211,-0.7208,-0.7211,-0.7189,-0.7192,-0.7194,-0.7194,-0.7194,-0.7195,-0.7192,-0.7186,-0.7169,-0.7167,-0.7171,-0.7175,-0.7179,-0.7175,-0.7109,-0.7166,-0.7165,-0.7165,-0.7165,-0.7164,-0.7268,-0.7275,-0.7266,-0.7267,-0.7262,-0.7259,-0.7264,-0.7253,-0.7254,-0.7252,-0.724,-0.7244,-0.7236,-0.723,-0.7226,-0.7228,-0.7217,-0.7223,-0.7224,-0.7226,-0.7228,-0.7179,-0.7228,-0.7228,-0.7227,-0.7227,-0.7227,0,-0.7325,-0.7317,-0.7318,-0.7313,-0.7314,-0.7297,-0.7291,-0.7293,-0.7296,-0.729,-0.729,-0.7291,-0.7291,-0.7278,-0.7276,-0.7281,-0.7273,-0.7281,-0.7279,-0.7278,-0.7238,-0.7235,-0.7287,-0.7287,-0.7287,-0.7287,-0.7287,-0.7287,-0.7354,-0.7365,-0.7355,-0.7362,-0.7354,-0.7357,-0.7355,-0.7351,-0.7346,-0.7348,-0.7347,-0.7339,-0.7329,-0.7326,-0.7325,-0.7321,-0.732,-0.733,-0.7324,-0.7287,-0.7281,-0.7276,-0.7272,-0.7331,-0.7331,-0.7363,-0.7363,-0.7363]},{"header":{"parameterUnit":"m.s-1","parameterCategory":1,"la1":30.2991,"la2":30.254,"lo1":-89.0895,"lo2":-89.0444,"dy":0.0017,"dx":0.0017,"nx":28,"ny":28,"refTime":"2025-01-03T03:00:00:Z","depth":0,"parameterNumber":3,"parameterNumberName":"V-component_of_WINDS"},"data":[0,0,0,0,0,0,0,0,0,0,0,0,0,0,0,0,0,0,0,0,0,0,0,0,0,0,0,0,0,0,0,0,0,0,0,0,0,0,0,0,0,0,0,0,0,0,0,0,0,0,0,0,0,0,0,0,0,0,-0.9661,-0.9659,0,-0.9476,-0.9474,-0.9472,-0.943,-0.9431,-0.9432,-0.9433,-0.9238,-0.9232,-0.9225,0,0,0,0,0,0,0,0,0,0,0,0,0,-0.9971,-0.9966,-0.9662,-0.9659,-0.9657,-0.9476,-0.9474,-0.9471,-0.9429,-0.9431,-0.9433,-0.9434,-0.924,-0.9233,-0.9225,0,0,0,0,0,0,0,0,0,0,0,0,0,-0.9816,-0.9964,-0.9662,-0.9614,-0.9608,-0.9477,-0.9474,-0.9471,-0.9429,-0.9431,-0.9433,-0.9435,-0.9243,-0.9233,-0.9224,-0.9125,0,0,-0.9194,-0.919,0,0,0,0,0,0,0,0,-0.9825,-0.9805,-0.9624,-0.9617,-0.961,-0.9478,-0.9511,-0.9354,-0.9428,-0.9497,-0.9433,-0.9436,-0.9316,-0.93,-0.9261,-0.9116,-0.9107,-0.9193,-0.9188,-0.9183,-0.9181,0,0,0,0,0,0,0,-0.9836,-0.9813,-0.9588,-0.9621,-0.9613,-0.96,-0.958,-0.9481,-0.9397,-0.9491,-0.9488,-0.9467,-0.9313,-0.927,-0.9256,-0.9104,-0.9194,-0.9185,-0.9179,-0.9175,-0.8863,-0.886,0,0,0,0,0,0,-0.9856,-0.9822,-0.9594,-0.9582,-0.9725,-0.9592,-0.957,-0.9518,-0.9398,-0.9382,-0.9465,-0.9465,-0.9286,-0.9267,-0.9249,-0.9121,-0.9184,-0.9174,-0.9169,-0.8865,-0.8862,-0.8859,0,0,0,0,0,0,-0.9863,-0.9836,-0.9601,-0.9701,-0.967,-0.9585,-0.9527,-0.9514,-0.9472,-0.9379,-0.9363,-0.9438,-0.9287,-0.9263,-0.9155,-0.9114,-0.917,-0.9161,-0.8868,-0.8864,-0.8861,-0.8868,0,0,0,0,0,0,-0.9872,-0.9839,-0.9803,-0.9701,-0.9665,-0.9513,-0.9525,-0.9509,-0.9456,-0.9454,-0.9349,-0.9334,-0.9286,-0.917,-0.9146,-0.9102,-0.9154,-0.8871,-0.8866,-0.8862,-0.8871,-0.8865,-0.886,0,0,0,0,0,-0.9883,-0.9812,-0.9801,-0.9774,-0.9618,-0.9511,-0.949,-0.9439,-0.9453,-0.9414,-0.9353,-0.9337,-0.9123,-0.9159,-0.9132,-0.9084,-0.8874,-0.8868,-0.8862,-0.8874,-0.8866,-0.886,0,0,0,0,0,0,-0.991,-0.9798,-0.9784,-0.9679,-0.9605,-0.9504,-0.9454,-0.9434,-0.9353,-0.9355,-0.9293,-0.9269,-0.9165,-0.9114,-0.9156,-0.898,-0.8998,-0.8987,-0.9017,-0.9009,-0.9003,-0.9016,-0.9146,0,0,0,0,0,-0.9904,-0.9829,-0.9734,-0.9649,-0.9613,-0.954,-0.9491,-0.9458,-0.9378,-0.9346,-0.9278,-0.9199,-0.9114,-0.9059,-0.8976,-0.8864,-0.8838,-0.8818,-0.8812,-0.8808,-0.8798,-0.873,-0.8719,-0.8841,-0.8841,-0.8841,0,0,-0.989,-0.9819,-0.9775,-0.9653,-0.9592,-0.9511,-0.9514,-0.943,-0.9369,-0.9333,-0.9226,-0.9174,-0.9081,-0.897,-0.8918,-0.8925,-0.8759,-0.8801,-0.8798,-0.879,-0.8723,-0.8712,-0.8702,-0.8837,-0.8838,-0.8838,0,0,-0.9823,-0.9764,-0.9685,-0.9624,-0.9531,-0.9482,-0.9463,-0.9365,-0.9328,-0.9221,-0.9191,-0.9116,-0.8972,-0.8906,-0.8853,-0.8758,-0.8738,-0.8732,-0.8702,-0.8637,-0.8627,-0.8618,-0.858,-0.8568,-0.8723,-0.8723,-0.8723,0,-0.9817,-0.9698,-0.9647,-0.9563,-0.9508,-0.9473,-0.939,-0.9332,-0.9216,-0.9178,-0.9188,-0.9003,-0.8938,-0.8809,-0.8785,-0.8746,-0.8719,-0.8743,-0.8633,-0.8624,-0.8615,-0.8577,-0.8564,-0.8723,-0.8723,-0.8723,-0.8723,0,-0.9692,-0.961,-0.9557,-0.9446,-0.9385,-0.9303,-0.9236,-0.918,-0.9151,-0.9101,-0.8989,-0.891,-0.8808,-0.8776,-0.8747,-0.8641,-0.8647,-0.8646,-0.8663,-0.8604,-0.8567,-0.8553,-0.8722,-0.8723,-0.8723,-0.8723,0,0,-0.9638,-0.9499,-0.948,-0.9427,-0.9321,-0.9255,-0.9169,-0.907,-0.9021,-0.8942,-0.8865,-0.8742,-0.8739,-0.8679,-0.8643,-0.8586,-0.851,-0.8591,-0.8587,-0.8575,-0.8382,-0.8381,-0.8366,-0.8497,-0.8494,-0.8492,-0.8388,0,-0.9555,-0.9403,-0.9353,-0.9224,-0.9144,-0.9108,-0.9032,-0.8957,-0.8906,-0.8829,-0.8772,-0.8684,-0.8689,-0.8652,-0.8595,-0.8532,-0.8469,-0.8539,-0.8421,-0.8417,-0.8442,-0.8348,-0.8348,-0.8254,-0.8374,-0.8372,-0.837,0,-0.9439,-0.9358,-0.9222,-0.9122,-0.9086,-0.9019,-0.8922,-0.885,-0.8762,-0.8729,-0.8661,-0.8628,-0.8533,-0.8557,-0.8422,-0.847,-0.8419,-0.838,-0.8375,-0.836,-0.8388,-0.8326,-0.8224,-0.8208,-0.8348,-0.835,-0.8352,0,-0.9408,-0.9265,-0.9163,-0.912,-0.9002,-0.8955,-0.8903,-0.8818,-0.876,-0.8675,-0.8636,-0.8541,-0.8487,-0.8413,-0.8353,-0.8377,-0.8221,-0.8242,-0.8188,-0.8189,-0.8155,-0.8157,-0.8039,-0.8128,-0.8128,-0.8128,-0.8128,0,-0.9319,-0.9236,-0.9147,-0.9085,-0.8989,-0.8931,-0.8837,-0.8783,-0.8706,-0.8629,-0.8593,-0.8521,-0.8448,-0.8366,-0.8319,-0.8211,-0.8189,-0.8156,-0.8144,-0.8157,-0.8161,-0.8121,-0.8125,-0.8124,-0.8125,-0.8126,-0.8126,0,-0.9268,-0.9206,-0.9092,-0.899,-0.8961,-0.8895,-0.8805,-0.8741,-0.8688,-0.8591,-0.8565,-0.8482,-0.8382,-0.8316,-0.819,-0.8157,-0.8039,-0.803,-0.8069,-0.8063,-0.801,-0.8015,-0.786,-0.7834,-0.7944,-0.7943,-0.7942,0,-0.9215,-0.915,-0.9039,-0.8986,-0.8934,-0.8849,-0.879,-0.8729,-0.8668,-0.8561,-0.8508,-0.8407,-0.8322,-0.8165,-0.8091,-0.7992,-0.7978,-0.7931,-0.7963,-0.7977,-0.7972,-0.7976,-0.7967,-0.7925,-0.7924,-0.7923,-0.7923,0,-0.9124,-0.9096,-0.9013,-0.8918,-0.8848,-0.877,-0.8692,-0.8649,-0.8574,-0.8507,-0.8405,-0.834,-0.8209,-0.8107,-0.8001,-0.7945,-0.7919,-0.7913,-0.7894,-0.7906,-0.793,-0.7912,-0.8051,-0.7916,-0.7917,-0.7917,-0.7918,-0.7918,-0.9067,-0.9006,-0.8918,-0.8825,-0.876,-0.8686,-0.862,-0.8558,-0.8473,-0.8363,-0.8332,-0.8225,-0.8134,-0.7989,-0.793,-0.7843,-0.7848,-0.7822,-0.7815,-0.7808,-0.7806,-0.7946,-0.7824,-0.7824,-0.7824,-0.7824,-0.7824,0,-0.8971,-0.8913,-0.8828,-0.8719,-0.8645,-0.863,-0.8541,-0.8479,-0.8386,-0.8304,-0.8221,-0.8102,-0.8002,-0.792,-0.7816,-0.7761,-0.7747,-0.7736,-0.7737,-0.7724,-0.781,-0.7835,-0.7749,-0.7749,-0.7749,-0.7749,-0.7749,-0.7749,-0.8913,-0.8807,-0.8768,-0.8627,-0.8568,-0.8464,-0.8414,-0.8344,-0.8278,-0.8147,-0.8064,-0.8012,-0.7928,-0.7817,-0.7723,-0.7701,-0.7662,-0.7653,-0.7628,-0.771,-0.7718,-0.7726,-0.7749,-0.7647,-0.7646,-0.7548,-0.7548,-0.7547]}]]